N1ADJ Weather Reports


Display with metric or nautical units.
time (UTC)temp
F
wind
direction
speed
MPH
gust
MPH
rain 1hr
in
rain 24hr
in
rain mn
in
humidity
%
barometer
mb
20260507105020 48 0.0 0.0 0.00 0.46 0.16 94 1006.7
20260507104519 47 0.0 0.0 0.00 0.46 0.16 94 1006.9
20260507104018 47 0.0 0.0 0.00 0.46 0.16 94 1006.4
20260507103518 47 270 1.0 3.0 0.00 0.46 0.16 94 1006.4
20260507103020 47 270 2.0 4.0 0.00 0.46 0.16 93 1006.7
20260507102518 47 293 1.0 3.0 0.00 0.46 0.16 93 1006.3
20260507102021 47 293 1.0 4.0 0.00 0.46 0.16 93 1006.2
20260507101517 47 270 2.0 3.0 0.00 0.46 0.16 93 1006.3
20260507101043 47 270 2.0 6.0 0.00 0.46 0.16 93 1006.5
20260507100519 47 270 3.0 6.0 0.00 0.46 0.16 93 1006.2
20260507100027 47 293 1.0 3.0 0.00 0.46 0.16 93 1006.4
20260507095523 47 315 1.0 3.0 0.00 0.46 0.16 93 1005.9
20260507095017 47 0.0 3.0 0.00 0.46 0.16 93 1005.9
20260507094539 47 0.0 3.0 0.00 0.46 0.16 93 1005.8
20260507094019 47 270 2.0 6.0 0.00 0.46 0.16 93 1006.3
20260507093519 47 315 2.0 5.0 0.00 0.46 0.16 92 1006.0
20260507093019 47 315 2.0 5.0 0.00 0.46 0.16 92 1005.3
20260507092520 47 315 2.0 5.0 0.00 0.46 0.16 92 1005.5
20260507092018 47 338 1.0 3.0 0.00 0.46 0.16 93 1005.5
20260507091538 47 338 2.0 5.0 0.00 0.46 0.16 92 1005.7
20260507091018 47 315 3.0 8.0 0.00 0.46 0.16 92 1006.0
20260507090538 48 315 3.0 10.0 0.00 0.46 0.16 93 1005.8
20260507090019 48 315 2.0 6.0 0.00 0.46 0.16 93 1005.8
20260507085519 48 315 3.0 8.0 0.00 0.46 0.16 93 1005.7
20260507085020 48 315 3.0 6.0 0.00 0.46 0.16 93 1006.2
20260507084518 48 315 4.0 8.0 0.00 0.46 0.16 93 1006.1
20260507084022 48 315 5.0 12.0 0.00 0.46 0.16 93 1005.9
20260507083518 48 315 5.0 11.0 0.00 0.46 0.16 94 1005.7
20260507083019 48 315 5.0 15.0 0.00 0.46 0.16 95 1005.4
20260507082518 48 315 6.0 13.0 0.00 0.46 0.16 95 1005.4
20260507082020 49 315 3.0 11.0 0.00 0.46 0.16 96 1005.8
20260507081517 49 338 3.0 10.0 0.00 0.46 0.16 97 1006.0
20260507081018 49 293 2.0 8.0 0.00 0.46 0.16 97 1005.9
20260507080519 49 293 2.0 6.0 0.00 0.46 0.16 97 1005.5
20260507080030 49 315 2.0 5.0 0.00 0.46 0.16 97 1005.3
20260507075520 49 315 3.0 7.0 0.00 0.46 0.16 97 1005.5
20260507075037 49 315 2.0 5.0 0.00 0.46 0.16 97 1005.1
20260507074517 49 293 2.0 4.0 0.00 0.46 0.16 97 1005.6
20260507074018 50 315 1.0 4.0 0.00 0.46 0.16 97 1005.4
20260507073517 50 315 1.0 4.0 0.00 0.46 0.16 97 1005.5
20260507073018 50 315 2.0 4.0 0.00 0.46 0.16 97 1005.3
20260507072539 50 293 1.0 3.0 0.00 0.46 0.16 97 1005.2
20260507072017 50 293 1.0 5.0 0.00 0.46 0.16 98 1005.4
20260507071519 50 315 1.0 2.0 0.00 0.46 0.16 98 1005.2
20260507071019 50 293 1.0 3.0 0.00 0.46 0.16 98 1005.1
20260507070517 50 293 1.0 2.0 0.00 0.46 0.16 98 1005.2
20260507070018 50 293 2.0 7.0 0.00 0.46 0.16 97 1005.2
20260507065518 50 293 2.0 5.0 0.00 0.46 0.16 98 1005.1
20260507065019 51 293 1.0 5.0 0.00 0.46 0.16 98 1004.7
20260507064519 51 0.0 2.0 0.01 0.46 0.16 98 1004.6
20260507064058 51 0.0 2.0 0.01 0.46 0.16 98 1004.8
20260507063518 51 315 1.0 4.0 0.01 0.46 0.16 98 1004.9
20260507063019 51 0.0 2.0 0.01 0.46 0.16 98 1004.6
20260507062518 51 0.0 0.0 0.01 0.46 0.16 98 1004.5
20260507062018 51 0.0 1.0 0.01 0.46 0.16 98 1004.4
20260507061537 51 293 1.0 5.0 0.01 0.46 0.16 98 1004.5
20260507061017 51 0.0 3.0 0.01 0.46 0.16 98 1004.6
20260507060540 51 315 2.0 5.0 0.01 0.46 0.16 98 1004.5
20260507060022 51 0.0 4.0 0.01 0.46 0.16 98 1004.6
20260507055517 51 0.0 1.0 0.01 0.46 0.16 98 1004.5
20260507055019 51 68 1.0 7.0 0.01 0.46 0.16 98 1004.6
20260507054518 52 338 3.0 10.0 0.01 0.45 0.15 98 1004.6
20260507054018 52 338 3.0 10.0 0.03 0.45 0.15 98 1004.4
20260507053519 52 315 2.0 8.0 0.04 0.45 0.15 98 1004.6
20260507053018 53 338 2.0 6.0 0.06 0.45 0.15 98 1004.4
20260507052517 53 45 1.0 4.0 0.08 0.45 0.15 98 1004.6
20260507052018 53 338 2.0 5.0 0.10 0.45 0.15 99 1004.5
20260507051518 53 315 1.0 5.0 0.12 0.45 0.15 99 1004.7
20260507051017 53 315 2.0 8.0 0.13 0.45 0.15 99 1004.5
20260507050517 53 315 2.0 6.0 0.14 0.45 0.15 98 1004.4
20260507050017 53 315 2.0 8.0 0.15 0.45 0.15 98 1004.2
20260507045518 53 338 4.0 12.0 0.15 0.45 0.15 99 1004.2
20260507045018 53 338 5.0 13.0 0.15 0.45 0.15 98 1004.2
20260507044518 52 338 1.0 7.0 0.14 0.44 0.14 98 1004.1
20260507044017 52 0.0 0.0 0.12 0.42 0.12 98 1004.3
20260507043519 52 0.0 0.0 0.11 0.41 0.11 98 1004.5
20260507043019 52 0.0 0.0 0.09 0.39 0.09 98 1004.5
20260507042517 52 0.0 0.0 0.07 0.37 0.07 98 1004.8
20260507042039 52 0.0 3.0 0.05 0.35 0.05 98 1004.5
20260507041517 52 293 1.0 4.0 0.03 0.33 0.03 98 1004.4
20260507041038 52 315 3.0 9.0 0.03 0.32 0.02 98 1004.3
20260507040521 52 225 4.0 11.0 0.02 0.31 0.01 98 1004.1
20260507040019 52 248 3.0 6.0 0.01 0.30 0.30 98 1003.6
20260507035603 52 225 3.0 7.0 0.01 0.30 0.30 98 1003.6
20260507035018 52 203 3.0 8.0 0.01 0.30 0.30 98 1003.7
20260507034538 52 203 3.0 6.0 0.01 0.30 0.30 98 1003.7
20260507034025 52 180 2.0 7.0 0.01 0.30 0.30 98 1003.9
20260507033521 52 225 3.0 8.0 0.01 0.30 0.30 98 1003.8
20260507033017 52 225 4.0 8.0 0.01 0.30 0.30 98 1003.8
20260507032518 52 225 3.0 7.0 0.01 0.30 0.30 98 1003.8
20260507032019 52 203 4.0 9.0 0.01 0.30 0.30 98 1003.8
20260507031518 52 225 5.0 12.0 0.01 0.30 0.30 98 1003.8
20260507031039 52 203 4.0 9.0 0.00 0.29 0.29 98 1003.9
20260507030520 52 225 3.0 9.0 0.00 0.29 0.29 98 1003.8
20260507030018 52 225 4.0 15.0 0.00 0.29 0.29 98 1003.8
20260507025545 51 203 2.0 7.0 0.00 0.29 0.29 98 1003.7
20260507025019 51 225 3.0 7.0 0.01 0.29 0.29 98 1003.9
20260507024518 51 203 5.0 9.0 0.01 0.29 0.29 98 1003.9
20260507024039 51 225 4.0 11.0 0.01 0.29 0.29 98 1004.1
20260507023520 51 225 8.0 16.0 0.01 0.29 0.29 98 1004.1
20260507023018 51 225 8.0 17.0 0.01 0.29 0.29 98 1004.1
20260507022517 51 225 5.0 10.0 0.02 0.29 0.29 98 1004.3
20260507022017 51 203 4.0 9.0 0.02 0.29 0.29 98 1004.3
20260507021518 51 203 4.0 8.0 0.02 0.29 0.29 98 1004.5
20260507021021 51 225 5.0 9.0 0.02 0.29 0.29 98 1004.5
20260507020517 51 225 5.0 10.0 0.02 0.29 0.29 98 1004.4
20260507020018 51 225 7.0 15.0 0.02 0.29 0.29 98 1004.5
20260507015517 51 203 5.0 10.0 0.02 0.29 0.29 98 1004.7
20260507015018 51 225 7.0 14.0 0.02 0.28 0.28 98 1004.6
20260507014518 51 225 7.0 14.0 0.02 0.28 0.28 97 1004.8
20260507014038 51 225 6.0 14.0 0.02 0.28 0.28 97 1004.8
20260507013518 52 225 8.0 16.0 0.03 0.28 0.28 97 1004.8
20260507013017 52 225 6.0 10.0 0.03 0.28 0.28 97 1004.9
20260507012518 52 225 7.0 15.0 0.02 0.27 0.27 97 1004.9
20260507012019 52 225 6.0 11.0 0.02 0.27 0.27 97 1004.9
20260507011519 52 225 7.0 13.0 0.02 0.27 0.27 97 1005.0
20260507011039 53 225 6.0 12.0 0.02 0.27 0.27 97 1005.0
20260507010523 53 225 5.0 9.0 0.02 0.27 0.27 97 1005.0
20260507010017 53 203 3.0 8.0 0.02 0.27 0.27 97 1005.0
20260507005519 53 225 6.0 13.0 0.02 0.27 0.27 97 1005.0
20260507005037 53 225 5.0 10.0 0.01 0.26 0.26 97 1005.1
20260507004521 53 203 5.0 10.0 0.01 0.26 0.26 97 1005.2
20260507004019 53 225 4.0 10.0 0.01 0.26 0.26 97 1005.1
20260507003518 53 225 2.0 7.0 0.00 0.25 0.25 97 1005.2
20260507003017 53 203 2.0 7.0 0.00 0.25 0.25 97 1005.4
20260507002523 53 248 2.0 8.0 0.00 0.25 0.25 97 1005.2
20260507002024 53 225 4.0 11.0 0.00 0.25 0.25 97 1005.4
20260507001518 53 225 5.0 10.0 0.00 0.25 0.25 97 1005.4
20260507001039 53 225 6.0 14.0 0.00 0.25 0.25 97 1005.2
20260507000518 53 225 6.0 16.0 0.00 0.25 0.25 97 1005.0
20260507000019 53 225 6.0 13.0 0.00 0.25 0.25 97 1005.1
20260506235518 53 203 4.0 11.0 0.00 0.25 0.25 97 1005.0
20260506235017 53 225 7.0 14.0 0.00 0.25 0.25 97 1005.0
20260506234519 53 180 5.0 19.0 0.00 0.25 0.25 97 1005.0
20260506234020 53 180 7.0 17.0 0.00 0.25 0.25 97 1005.0
20260506233521 53 225 3.0 9.0 0.00 0.25 0.25 97 1005.1
20260506233018 53 225 5.0 13.0 0.00 0.25 0.25 97 1005.4
20260506232518 53 203 6.0 19.0 0.00 0.25 0.25 97 1005.1
20260506232038 53 225 6.0 12.0 0.01 0.25 0.25 97 1005.2
20260506231558 54 203 4.0 11.0 0.01 0.25 0.25 97 1005.1
20260506231038 54 203 3.0 9.0 0.01 0.25 0.25 97 1005.2
20260506230521 54 203 6.0 14.0 0.02 0.25 0.25 97 1005.3
20260506230019 54 203 5.0 16.0 0.02 0.25 0.25 97 1005.3
20260506225517 54 203 4.0 12.0 0.02 0.25 0.25 97 1005.4
20260506225019 54 180 3.0 10.0 0.03 0.25 0.25 97 1005.5
20260506224517 54 225 4.0 10.0 0.03 0.25 0.25 97 1005.4
20260506224022 54 203 4.0 12.0 0.04 0.25 0.25 97 1005.5
20260506223517 54 225 7.0 18.0 0.04 0.25 0.25 97 1005.5
20260506223017 54 225 7.0 18.0 0.05 0.25 0.25 97 1005.6
20260506222518 54 203 7.0 18.0 0.05 0.25 0.25 97 1005.7
20260506222039 54 225 7.0 15.0 0.05 0.24 0.24 97 1005.6
20260506221517 54 203 7.0 16.0 0.06 0.24 0.24 97 1005.7
20260506221045 54 225 5.0 15.0 0.07 0.24 0.24 97 1005.8
20260506220542 54 225 8.0 18.0 0.07 0.23 0.23 97 1005.7
20260506220019 54 225 7.0 12.0 0.07 0.23 0.23 97 1005.8
20260506215517 54 225 7.0 15.0 0.08 0.23 0.23 97 1006.0
20260506215020 54 225 6.0 13.0 0.07 0.22 0.22 97 1005.9
20260506214517 53 203 6.0 12.0 0.08 0.22 0.22 97 1006.0
20260506214020 53 225 7.0 15.0 0.07 0.21 0.21 97 1006.1
20260506213541 53 203 6.0 14.0 0.07 0.21 0.21 97 1006.1
20260506213017 53 225 7.0 14.0 0.06 0.20 0.20 96 1006.0
20260506212518 53 225 6.0 14.0 0.07 0.20 0.20 96 1006.2
20260506212017 53 225 5.0 12.0 0.07 0.19 0.19 96 1006.3
20260506211605 53 225 6.0 13.0 0.06 0.18 0.18 96 1006.3
20260506211019 53 225 6.0 15.0 0.05 0.17 0.17 96 1006.5
20260506210518 53 203 6.0 13.0 0.05 0.16 0.16 96 1006.4
20260506210017 53 225 4.0 9.0 0.06 0.16 0.16 96 1006.3
20260506205527 53 225 4.0 8.0 0.05 0.15 0.15 96 1006.1
20260506205018 53 203 6.0 14.0 0.07 0.15 0.15 96 1006.2
20260506204523 53 225 6.0 17.0 0.07 0.14 0.14 96 1006.2
20260506204039 53 225 6.0 12.0 0.08 0.14 0.14 96 1006.4
20260506203539 53 203 5.0 14.0 0.09 0.14 0.14 96 1006.4
20260506203017 53 203 5.0 18.0 0.10 0.14 0.14 96 1006.4
20260506202518 53 203 6.0 15.0 0.10 0.13 0.13 96 1006.4
20260506202018 53 203 5.0 13.0 0.10 0.12 0.12 95 1006.8
20260506201540 53 180 3.0 11.0 0.12 0.12 0.12 95 1006.6
20260506201017 53 203 6.0 15.0 0.12 0.12 0.12 95 1006.7
20260506200539 53 203 5.0 12.0 0.11 0.11 0.11 95 1007.0
20260506200018 53 203 7.0 14.0 0.10 0.10 0.10 95 1007.1
20260506195517 53 225 7.0 18.0 0.10 0.10 0.10 95 1007.0
20260506195029 53 203 8.0 18.0 0.08 0.08 0.08 95 1007.1
20260506194518 53 203 8.0 17.0 0.07 0.07 0.07 95 1007.0
20260506194019 53 203 8.0 19.0 0.06 0.06 0.06 95 1006.9
20260506193558 53 225 9.0 15.0 0.05 0.05 0.05 94 1007.2
20260506193019 53 225 9.0 17.0 0.04 0.04 0.04 94 1007.1
20260506192518 53 248 4.0 11.0 0.03 0.03 0.03 94 1007.3
20260506192058 54 203 6.0 12.0 0.02 0.02 0.02 93 1007.3
20260506191522 54 225 8.0 14.0 0.00 0.00 0.00 92 1007.2
20260506191018 54 225 5.0 10.0 0.00 0.00 0.00 92 1006.9
20260506190538 54 225 7.0 12.0 0.00 0.00 0.00 91 1007.0
20260506190037 54 225 7.0 12.0 0.00 0.00 0.00 91 1006.9
20260506185518 54 225 7.0 16.0 0.00 0.00 0.00 90 1007.0
20260506185017 55 248 6.0 10.0 0.00 0.00 0.00 88 1006.8
20260506184517 56 225 7.0 16.0 0.00 0.00 0.00 89 1006.7
20260506184018 56 225 7.0 14.0 0.00 0.00 0.00 88 1006.8
20260506183519 56 203 7.0 14.0 0.00 0.00 0.00 88 1006.9
20260506183021 56 203 6.0 11.0 0.00 0.00 0.00 88 1006.8
20260506182517 56 225 7.0 14.0 0.00 0.00 0.00 88 1006.9
20260506182019 56 225 7.0 13.0 0.00 0.00 0.00 87 1007.2
20260506181521 56 225 5.0 10.0 0.00 0.00 0.00 87 1007.3
20260506181023 56 203 6.0 13.0 0.00 0.00 0.00 87 1007.1
20260506180518 56 225 5.0 11.0 0.00 0.00 0.00 87 1007.1
20260506180023 56 225 6.0 12.0 0.00 0.00 0.00 87 1007.3
20260506175517 56 203 3.0 9.0 0.00 0.00 0.00 87 1007.3
20260506175017 56 225 3.0 7.0 0.00 0.00 0.00 87 1007.3
20260506174518 56 180 3.0 6.0 0.00 0.00 0.00 88 1007.4
20260506174020 56 203 3.0 8.0 0.00 0.00 0.00 88 1007.3
20260506173516 56 225 5.0 11.0 0.00 0.00 0.00 88 1007.3
20260506173018 56 225 4.0 7.0 0.00 0.00 0.00 88 1007.4
20260506172519 56 225 5.0 9.0 0.00 0.00 0.00 88 1007.5
20260506172016 56 203 4.0 8.0 0.00 0.00 0.00 88 1007.6
20260506171518 56 225 5.0 10.0 0.00 0.00 0.00 87 1007.7
20260506171017 56 225 3.0 7.0 0.00 0.00 0.00 88 1007.9
20260506170519 56 203 4.0 8.0 0.00 0.00 0.00 88 1007.9
20260506170036 56 203 3.0 7.0 0.00 0.00 0.00 88 1007.9
20260506165517 56 225 4.0 8.0 0.00 0.00 0.00 88 1008.0
20260506165037 56 225 6.0 9.0 0.00 0.00 0.00 88 1008.2
20260506164523 56 225 5.0 13.0 0.00 0.00 0.00 88 1008.3
20260506164017 56 203 6.0 13.0 0.00 0.00 0.00 88 1008.3
20260506163517 56 203 7.0 15.0 0.00 0.00 0.00 88 1008.2
20260506163019 56 203 7.0 14.0 0.00 0.00 0.00 87 1008.6
20260506162516 56 225 8.0 14.0 0.00 0.00 0.00 87 1008.5
20260506162017 57 225 6.0 13.0 0.00 0.00 0.00 87 1008.7
20260506161516 57 225 5.0 12.0 0.00 0.00 0.00 88 1008.7
20260506161016 56 225 5.0 10.0 0.00 0.00 0.00 88 1008.9
20260506160519 56 225 5.0 10.0 0.00 0.00 0.00 89 1008.8
20260506160017 56 203 6.0 13.0 0.00 0.00 0.00 88 1009.0
20260506155517 56 225 5.0 8.0 0.00 0.00 0.00 90 1009.0
20260506155018 56 225 4.0 8.0 0.00 0.00 0.00 89 1008.9
20260506154516 55 203 7.0 14.0 0.00 0.00 0.00 89 1009.1
20260506154018 55 225 6.0 17.0 0.00 0.00 0.00 89 1009.2
20260506153518 56 225 7.0 18.0 0.00 0.00 0.00 88 1009.3
20260506153020 56 225 7.0 15.0 0.00 0.00 0.00 88 1009.4
20260506152517 56 225 6.0 10.0 0.00 0.00 0.00 89 1009.2
20260506152037 56 225 8.0 17.0 0.00 0.00 0.00 88 1009.1
20260506151517 56 225 8.0 13.0 0.00 0.00 0.00 87 1009.3
20260506151021 57 225 7.0 12.0 0.00 0.00 0.00 87 1009.3
20260506150517 57 225 6.0 11.0 0.00 0.00 0.00 87 1009.2
20260506150017 57 225 6.0 12.0 0.00 0.00 0.00 88 1008.9
20260506145516 57 225 6.0 13.0 0.00 0.00 0.00 88 1008.8
20260506145021 57 203 6.0 12.0 0.00 0.00 0.00 88 1008.7
20260506144517 57 225 8.0 13.0 0.00 0.00 0.00 89 1008.6
20260506144018 56 225 6.0 13.0 0.00 0.00 0.00 89 1008.6
20260506143516 56 225 6.0 11.0 0.00 0.00 0.00 90 1008.7
20260506143036 56 203 4.0 11.0 0.00 0.00 0.00 89 1008.8
20260506142523 56 225 8.0 18.0 0.00 0.00 0.00 89 1009.0
20260506142017 56 225 7.0 16.0 0.00 0.00 0.00 89 1009.3
20260506141516 56 180 3.0 7.0 0.00 0.00 0.00 90 1009.3
20260506141016 56 203 4.0 12.0 0.00 0.00 0.00 91 1009.5
20260506140518 55 225 5.0 10.0 0.00 0.00 0.00 90 1009.4
20260506140016 55 203 6.0 12.0 0.00 0.00 0.00 90 1009.3
20260506135516 55 225 7.0 16.0 0.00 0.00 0.00 90 1009.4
20260506135018 55 203 7.0 15.0 0.00 0.00 0.00 90 1009.4
20260506134518 55 225 6.0 13.0 0.00 0.00 0.00 90 1009.5
20260506134019 55 225 6.0 11.0 0.00 0.00 0.00 90 1009.4
20260506133516 55 225 7.0 14.0 0.00 0.00 0.00 90 1009.4
20260506133024 55 225 8.0 14.0 0.00 0.00 0.00 89 1009.2
20260506132529 56 203 6.0 12.0 0.00 0.00 0.00 89 1009.1
20260506132023 56 225 6.0 12.0 0.00 0.00 0.00 89 1009.3
20260506131521 56 225 4.0 10.0 0.00 0.00 0.00 89 1009.2
20260506131019 56 203 6.0 13.0 0.00 0.00 0.00 89 1009.3
20260506130522 56 203 7.0 15.0 0.00 0.00 0.00 89 1009.2
20260506130018 56 225 8.0 13.0 0.00 0.00 0.00 89 1009.1
20260506125539 56 203 7.0 13.0 0.00 0.00 0.00 89 1009.1
20260506125021 56 225 8.0 18.0 0.00 0.00 0.00 89 1009.0
20260506124519 56 225 9.0 18.0 0.00 0.00 0.00 89 1009.2
20260506124019 56 225 6.0 13.0 0.00 0.00 0.00 90 1009.2
20260506123538 55 225 7.0 13.0 0.00 0.00 0.00 89 1009.2
20260506123018 55 203 6.0 13.0 0.00 0.00 0.00 90 1009.2
20260506122518 55 203 5.0 10.0 0.00 0.00 0.00 90 1009.3
20260506122018 55 203 4.0 9.0 0.00 0.00 0.00 90 1009.3
20260506121520 55 203 3.0 7.0 0.00 0.00 0.00 90 1009.4
20260506121019 55 225 5.0 9.0 0.00 0.00 0.00 90 1009.4
20260506120539 55 225 4.0 9.0 0.00 0.00 0.00 90 1009.4
20260506120020 55 225 4.0 13.0 0.00 0.00 0.00 90 1009.4
20260506115518 54 203 4.0 9.0 0.00 0.00 0.00 91 1009.4
20260506115018 54 203 3.0 8.0 0.00 0.00 0.00 91 1009.5
20260506114519 54 180 4.0 9.0 0.00 0.00 0.00 91 1009.7
20260506114018 54 203 3.0 7.0 0.00 0.00 0.00 91 1009.7
20260506113518 54 225 3.0 7.0 0.00 0.00 0.00 91 1009.5
20260506113038 54 180 3.0 9.0 0.00 0.00 0.00 91 1009.5
20260506112518 54 203 4.0 9.0 0.00 0.00 0.00 91 1009.6
20260506112038 53 225 4.0 7.0 0.00 0.00 0.00 91 1009.8
20260506111518 53 203 3.0 9.0 0.00 0.00 0.00 91 1009.6
20260506111018 53 203 5.0 11.0 0.00 0.00 0.00 92 1009.5
20260506110518 53 225 3.0 7.0 0.00 0.00 0.00 92 1009.4
20260506110018 53 203 3.0 8.0 0.00 0.00 0.00 92 1009.4
20260506105518 52 203 3.0 8.0 0.00 0.00 0.00 92 1009.4